{"data":{"norad_id":67816,"epoch":"2026-05-25T02:11:29.359392Z","epoch_age_seconds":67353,"freshness":"FRESH","line1":"1 67816U 26032V   26145.09131203  .00007394  00000+0  23112-3 0  9992","line2":"2 67816  97.2857 333.2499 0001265  89.9555 270.1833 15.33446098 16673","mean_motion":15.33446098,"eccentricity":0.0001265,"inclination_deg":97.2857,"raan_deg":333.2499,"arg_perigee_deg":89.9555,"mean_anomaly_deg":270.1833,"bstar":0.00023112,"rev_number":1667,"period_min":93.906137416771,"perigee_km":464.67418247578,"apogee_km":466.4056327334,"semimajor_km":6843.6769076046,"source":"CELESTRAK","updated_at":"2026-05-25T13:38:21.696038Z"}}